x

8452944 - Conimicut Light, Ri (cptr1) Weather Station

1:30 - Fri 28th Aug 2015 All times are EDT. -4 hours from GMT.

  • Wind
    8mph, 9mph gusts
  • Sea Temp 76°f
  • Ar Temp 74°f
  • Sea Pressure 1020.9mb
  • 8452944 - Conimicut Light, Ri
  • 8452944 - Conimicut Light, Ri

More Historic Weather Station data

Upgrade to MSW Pro to gain access to the past 30 days of data for over 8000 Wavebouys and Weather Stations around the globe.

Join Pro

Comparision Forecast

View Surf forecast
   
Sex 08/28 1:30 8 9 mph 1020.9mb 76f 74f
1:24 7
mph
1020.9mb 76f 74f
1:18 7 8 mph 1020.9mb 76f 74f
1:12 7
mph
1021mb 76f 73f
1:06 6 7 mph 1021mb 76f 73f
1:00 6 8 mph 1020.9mb 76f 73f
12:54 6 8 mph 1021mb 76f 73f
12:48 7
mph
1021.1mb 76f 73f
12:42 6 8 mph 1021.2mb 76f 73f
12:36 7 8 mph 1021.2mb 76f 72f
12:30 6 8 mph 1021.3mb 76f 72f
12:24 7 8 mph 1021.4mb 76f 72f
12:18 8
mph
1021.4mb 76f 72f
12:12 8
mph
1021.5mb 76f 72f
12:06 5 8 mph 1021.6mb 76f 72f
12:00 7
mph
1021.5mb 75f 72f
11:54 3 5 mph 1021.6mb 75f 73f
11:48  -  1 mph 1021.6mb 75f 75f
11:42  -  2 mph 1021.6mb 75f 76f
11:36  -  1 mph 1021.6mb 75f 75f
11:30  -  mph 1021.6mb 75f 73f
11:24  -  1 mph 1021.7mb 75f 74f
11:18  -  1 mph 1021.7mb 75f 73f
11:12  -  1 mph 1021.7mb 75f 73f
11:06  -  2 mph 1021.7mb 75f 72f
11:00  -  mph 1021.7mb 75f 73f
10:54  -  3 mph 1021.7mb 75f 71f
10:48 3
mph
1021.7mb 75f 70f
10:42 3 5 mph 1021.7mb 75f 70f
10:36 5 6 mph 1021.8mb 75f 70f
10:30 5 6 mph 1021.8mb 75f 69f
10:24 5 6 mph 1021.7mb 75f 69f
10:18 6 7 mph 1021.6mb 75f 69f
10:12 5 7 mph 1021.5mb 75f 69f
10:06 6 7 mph 1021.5mb 75f 69f
10:00 5 6 mph 1021.5mb 75f 70f
9:54 6 8 mph 1021.5mb 75f 69f
9:48 6 8 mph 1021.5mb 75f 71f
9:42 7 9 mph 1021.5mb 75f 70f
9:36 8 9 mph 1021.4mb 75f 70f
9:30 8 10 mph 1021.4mb 75f 70f
9:24 9 10 mph 1021.4mb 75f 70f
9:18 7 13 mph 1021.3mb 75f 70f
9:12 9 13 mph 1021.3mb 75f 70f
9:06 8 10 mph 1021.3mb 75f 70f
9:00 9 11 mph 1021.3mb 75f 69f
8:54 10 13 mph 1021.2mb 75f 69f
8:48 10 14 mph 1021.2mb 75f 69f
8:42 10 11 mph 1021.1mb 75f 69f
8:36 8 10 mph 1021.1mb 75f 69f
8:30 10 11 mph 1021.2mb 75f 69f
8:24 9 11 mph 1021.2mb 75f 68f
8:18 9 11 mph 1021.1mb 75f 68f
8:12 10 13 mph 1021.1mb 75f 68f
8:06 9 11 mph 1021mb 75f 68f
8:00 9 11 mph 1021mb 75f 67f
7:54 10 11 mph 1021mb 75f 67f
7:48 9 11 mph 1020.9mb 75f 67f
7:42 7 9 mph 1020.9mb 75f 67f
7:36 8 9 mph 1020.9mb 75f 66f
7:30 8 9 mph 1020.9mb 75f 65f
7:24 8 11 mph 1020.9mb 75f 65f
7:18 8 9 mph 1020.9mb 75f 64f
7:12 8 10 mph 1020.9mb 75f 64f
7:06 8 9 mph 1020.8mb 75f 64f
7:00 7 9 mph 1020.7mb 75f 65f
6:54 7 8 mph 1020.7mb 75f 64f
6:48 7 8 mph 1020.6mb 75f 64f
6:42 7 9 mph 1020.5mb 75f 64f
6:36 7 9 mph 1020.4mb 75f 64f
6:30 6 7 mph 1020.3mb 75f 65f
6:24 6 9 mph 1020.3mb 75f 65f
6:18 8 10 mph 1020.2mb 75f 65f
6:12 9 10 mph 1020.1mb 75f 64f
6:06 9 10 mph 1020.1mb 75f 65f
6:00 9 10 mph 1020mb 75f 64f
5:54 9 10 mph 1020mb 75f 64f
5:48 8 11 mph 1020mb 75f 65f
5:42 9 10 mph 1020mb 75f 64f
5:36 9 10 mph 1020mb 75f 65f
5:30 9 10 mph 1020mb 75f 64f
5:24 9 11 mph 1019.9mb 75f 64f
5:18 9 11 mph 1019.8mb 75f 65f
5:12 9 11 mph 1019.8mb 75f 65f
5:06 10 13 mph 1019.7mb 75f 65f
5:00 11
mph
1019.7mb 75f 65f
4:54 10 11 mph 1019.7mb 75f 65f
4:48 9 10 mph 1019.7mb 75f 65f
4:42 9 11 mph 1019.7mb 76f 65f
4:36 9 11 mph 1019.6mb 76f 65f
4:30 9 11 mph 1019.5mb 76f 65f
4:24 9 10 mph 1019.6mb 76f 65f
4:18 9 11 mph 1019.5mb 76f 65f
4:12 9 11 mph 1019.6mb 76f 66f
4:06 10 11 mph 1019.5mb 76f 66f
4:00 11 13 mph 1019.5mb 76f 65f
3:54 10 13 mph 1019.5mb 76f 65f
3:48 10 15 mph 1019.4mb 76f 66f
3:42 13 15 mph 1019.4mb 76f 65f
3:36 13 14 mph 1019.4mb 76f 65f
3:30 13 14 mph 1019.4mb 76f 66f
3:24 13 15 mph 1019.4mb 76f 66f
3:18  -  mph - - 66f
3:12  -  mph - - 66f
3:06  -  mph - - 66f
3:00 11 14 mph 1019.3mb 76f 67f
2:54 10 13 mph 1019.2mb 76f 66f
2:48 10 13 mph 1019.2mb 76f 66f
2:42 10 13 mph 1019.2mb 76f 67f
2:36 10 13 mph 1019.2mb 76f 66f
2:30 10 11 mph 1019.2mb 76f 67f
2:24 10 11 mph 1019.2mb 76f 67f
2:18 10 11 mph 1019.2mb 76f 66f
2:12 10 11 mph 1019.2mb 76f 67f
2:06 9 13 mph 1019.2mb 76f 67f
2:00 9 11 mph 1019.2mb 76f 67f
1:54 10 11 mph 1019.2mb 76f 67f
1:48 9 11 mph 1019.2mb 76f 67f
1:42 9 11 mph 1019.2mb 76f 67f
1:36 9 11 mph 1019.2mb 76f 68f
1:30 10 13 mph 1019.2mb 76f 68f
1:24 9 13 mph 1019.2mb 76f 68f
1:18 9 11 mph 1019.2mb 76f 68f
1:12 10 13 mph 1019.2mb 76f 68f
1:06 11 13 mph 1019.2mb 76f 68f
1:00 10 14 mph 1019.2mb 76f 68f
12:54 10 13 mph 1019.2mb 76f 68f
12:48 11 15 mph 1019.2mb 76f 68f
12:42 11 13 mph 1019.2mb 76f 69f
12:36 10 13 mph 1019.3mb 76f 69f
12:30 10 11 mph 1019.2mb 76f 69f
12:24 11 14 mph 1019.2mb 76f 69f
12:18 10 13 mph 1019.2mb 76f 69f
12:12 10 13 mph 1019.1mb 76f 69f
12:06 11 14 mph 1019.1mb 76f 69f
12:00 10 13 mph 1019.1mb 76f 69f
Qui 08/27 11:54 10 11 mph 1019.1mb 76f 69f
11:48 9 10 mph 1019.1mb 76f 69f
11:42 10 11 mph 1019.1mb 77f 69f
11:36 10 11 mph 1019mb 77f 69f
11:30 10 13 mph 1019mb 77f 70f
11:24 10 13 mph 1018.9mb 77f 70f
11:18 10 13 mph 1018.9mb 77f 70f
11:12 9 11 mph 1018.8mb 77f 70f
11:06 7 10 mph 1018.8mb 77f 70f
11:00 10 11 mph 1018.7mb 77f 71f
10:54 6 8 mph 1018.7mb 77f 70f
10:48 7 8 mph 1018.6mb 77f 71f
10:42 7 9 mph 1018.7mb 77f 71f
10:36 5 7 mph 1018.7mb 77f 71f
10:30 5 8 mph 1018.7mb 77f 71f
10:24 6 8 mph 1018.7mb 77f 71f
10:18 5 9 mph 1018.7mb 77f 71f
10:12 7 9 mph 1018.6mb 77f 72f
10:06 8 9 mph 1018.6mb 77f 72f
10:00 8 9 mph 1018.5mb 77f 71f
9:54 8 9 mph 1018.4mb 77f 71f
9:48 7 9 mph 1018.3mb 77f 71f
9:42 7 8 mph 1018.3mb 77f 71f
9:36 8 10 mph 1018.2mb 77f 72f
9:30 8 9 mph 1018.1mb 77f 72f
9:24 7 8 mph 1018.2mb 77f 72f
9:18 7 8 mph 1018.1mb 77f 72f
9:12 7 10 mph 1018.1mb 77f 72f
9:06 9 10 mph 1018mb 77f 73f
9:00 10 13 mph 1017.9mb 77f 73f
8:54 10 13 mph 1017.9mb 77f 73f
8:48 9 13 mph 1017.8mb 77f 73f
8:42 9 10 mph 1017.7mb 77f 73f
8:36 7 8 mph 1017.7mb 77f 73f
8:30 7 9 mph 1017.6mb 77f 73f
8:24 7 9 mph 1017.4mb 77f 73f
8:18 7 9 mph 1017.4mb 77f 73f
8:12 7 9 mph 1017.3mb 77f 73f
8:06 8 11 mph 1017.2mb 77f 74f
8:00 8 9 mph 1017.2mb 77f 74f
7:54 8 10 mph 1017.1mb 77f 74f
7:48 9 10 mph 1017mb 77f 74f
7:42 8 10 mph 1017mb 77f 74f
7:36 9 10 mph 1016.9mb 77f 74f
7:30 9 13 mph 1016.8mb 77f 75f
7:24 10 14 mph 1016.7mb 77f 75f
7:18 14 16 mph 1016.8mb 77f 75f
7:12 15 18 mph 1016.7mb 77f 75f
7:06 15 18 mph 1016.5mb 77f 75f
7:00 15 18 mph 1016.5mb 77f 76f
6:54 16 18 mph 1016.5mb 77f 76f
6:48 16 18 mph 1016.5mb 77f 76f
6:42 15 18 mph 1016.5mb 77f 76f
6:36 14 18 mph 1016.4mb 76f 76f
6:30 14 16 mph 1016.4mb 76f 76f
6:24 13 17 mph 1016.3mb 76f 76f
6:18 14 17 mph 1016.3mb 76f 76f
6:12 16 18 mph 1016.2mb 76f 76f
6:06 16 20 mph 1016.2mb 76f 76f
6:00 16 18 mph 1016.1mb 76f 76f
5:54 14 18 mph 1016.1mb 76f 77f
5:48 15 18 mph 1016mb 76f 76f
5:42 15 17 mph 1016mb 76f 76f
5:36 14 18 mph 1016mb 77f 76f
5:30 14 17 mph 1016mb 77f 77f
5:24 18 21 mph 1015.9mb 77f 76f
5:18 17 22 mph 1015.8mb 77f 77f
5:12 16 22 mph 1015.8mb 77f 77f
5:06 17 22 mph 1015.7mb 77f 77f
5:00 17 21 mph 1015.7mb 77f 77f
4:54 16 20 mph 1015.7mb 77f 77f
4:48 16 22 mph 1015.6mb 76f 77f
4:42 15 20 mph 1015.6mb 76f 77f
4:36 16 22 mph 1015.6mb 76f 77f
4:30 17 21 mph 1015.5mb 76f 77f
4:24 16 21 mph 1015.6mb 76f 77f
4:18  -  mph 1015.7mb 76f 77f
4:12 16 22 mph 1015.6mb 76f 77f
4:06 11 15 mph 1015.6mb 76f 77f
4:00 16 21 mph - - -
3:54 16 18 mph - - -
3:48  -  mph - 77f 77f
3:42  -  mph - 77f 76f
3:36  -  mph - 77f 77f
3:30 10 15 mph 1015.7mb 77f 76f
3:24 13 20 mph 1015.7mb 77f 76f
3:18  -  mph 1015.7mb - 76f
3:12  -  mph 1015.7mb - 76f
3:06  -  mph 1015.7mb - 76f
3:00 10 15 mph - - 76f
2:54 14 15 mph - - 76f
2:48 16 17 mph - - 76f
2:42 16 18 mph - - 76f
2:36 14 16 mph - - 77f
2:30  -  mph - 77f -
2:24  -  mph - 76f -
2:18 11 15 mph 1016mb 76f 77f
2:12 9 11 mph 1015.9mb 76f 77f
2:06 11 14 mph 1016mb 77f 77f
2:00 14 15 mph 1016mb 77f 77f
1:54 13 16 mph 1015.9mb 77f 77f
1:48 10 16 mph 1015.9mb 77f 77f
1:42 13 15 mph 1015.9mb 77f 76f
1:36 6 9 mph 1016mb 77f 76f
1:30 8 14 mph 1016.1mb 77f 76f
1:24 7 13 mph 1016.1mb 77f 76f
1:18 11 13 mph 1016.1mb 77f 76f
1:12 7 14 mph 1016.2mb 77f 76f
1:06 10 13 mph 1016.2mb 77f 75f
1:00 10 13 mph 1016.2mb 77f 76f
12:54 10 16 mph 1016.2mb 77f 75f
12:48 9 15 mph 1016.3mb 77f 75f
12:42 9 14 mph 1016.4mb 77f 75f
12:36 6 9 mph 1016.4mb 77f 75f
12:30  -  mph - - 75f
12:24  -  mph - - 75f
12:18 8 14 mph 1016.6mb 77f 74f
12:12 6 9 mph 1016.6mb 77f 74f
12:06 10 13 mph 1016.6mb 77f 75f
12:00 7 10 mph 1016.6mb 77f 75f
11:54 9 14 mph 1016.6mb 77f 75f
11:48  -  mph - 77f 75f
11:42  -  mph - 77f 74f
11:36  -  mph - 77f 75f
11:30 8 11 mph 1016.8mb 76f 73f
11:24 7 11 mph 1016.9mb 76f 73f
11:18  -  mph - - 73f
11:12  -  mph - - 74f
11:06  -  mph - - 74f
11:00 11 13 mph 1016.9mb 76f 74f
10:54 11 15 mph 1016.9mb 76f 73f
10:48 14 16 mph 1016.8mb 76f 73f
10:42 9 15 mph 1016.8mb 76f 73f
10:36 14 16 mph 1016.8mb 76f 72f
10:30 13 16 mph 1016.8mb 76f 72f
10:24 10 13 mph 1016.7mb 76f 72f
10:18 11 14 mph 1016.7mb 76f 71f
10:12 10 15 mph 1016.7mb 76f 71f
10:06 13 15 mph 1016.6mb 76f 71f
10:00 14 17 mph 1016.6mb 76f 71f
9:54 16 18 mph 1016.6mb 76f 71f
9:48 17 20 mph 1016.5mb 76f 71f
9:18  -  mph - 76f 70f
9:12  -  mph - 76f 70f
9:06  -  mph - 76f 69f
9:00  -  mph - 76f 69f
8:54  -  mph - 76f 69f
8:48  -  mph - 76f 69f
8:42  -  mph - 76f 69f
8:36  -  mph - 76f 69f
8:30  -  mph - 76f 68f
8:24  -  mph - 76f 67f
8:18  -  mph - 76f 68f
8:12  -  mph - 76f 67f
8:06  -  mph - 76f 67f
8:00 15 18 mph 1016.4mb 76f 67f
7:54 14 16 mph 1016.3mb 76f 67f
7:48  -  mph - 76f 67f
7:42  -  mph - 76f 67f
7:36  -  mph - 76f 66f
7:30  -  mph - - 66f
7:24  -  mph - - 66f
7:18 13 14 mph 1015.9mb 76f 66f
7:12 10 13 mph 1015.8mb 76f 66f
7:06 11 14 mph 1015.8mb 76f 65f
7:00 11 13 mph 1015.7mb 76f 66f
6:54 11 14 mph 1015.6mb 76f 66f
6:48 13 15 mph 1015.6mb 76f 66f
6:42 13 15 mph 1015.5mb 76f 66f
6:36 14 15 mph 1015.5mb 76f 66f
6:30 11 14 mph 1015.5mb 76f 66f
6:24 10 13 mph 1015.4mb 76f 66f
6:18 9 11 mph 1015.4mb 76f 66f
6:12 10 13 mph 1015.3mb 76f 66f
6:06 13 15 mph 1015.3mb 76f 66f
6:00 13 16 mph 1015.2mb 76f 67f
5:54 14 16 mph 1015.1mb 76f 67f
5:48 13 15 mph 1015.1mb 76f 67f
1:30 9 10 mph 1015.2mb 78f 70f
1:24 8 9 mph 1015.3mb 78f 70f
1:18 8 10 mph 1015.3mb 78f 70f
1:12 8 9 mph 1015.3mb 78f 70f
1:06 8 10 mph 1015.4mb 78f 70f
1:00 8 11 mph 1015.4mb 78f 70f
12:54 10 13 mph 1015.3mb 78f 70f
12:48 11 14 mph 1015.3mb 78f 70f
12:42 13 15 mph 1015.2mb 78f 70f
12:36 14 15 mph 1015.2mb 78f 70f
12:30 14 15 mph 1015.2mb 78f 70f
12:24 13 15 mph 1015.2mb 78f 70f
12:18 13 16 mph 1015.2mb 78f 70f
12:12 14 15 mph 1015.2mb 78f 70f
12:06 13 14 mph 1015.2mb 78f 70f
12:00 11 14 mph - 78f 69f
Qua 08/26 11:54 13 15 mph - 78f 69f
11:48 13 15 mph 1015.3mb 78f 70f
11:42 13 15 mph 1015.2mb 78f 70f
11:36 13 15 mph 1015.2mb 78f 70f
11:30 13 15 mph 1015.2mb 78f 70f
11:24 11 14 mph 1015.2mb 78f 70f
11:18 13 14 mph 1015.2mb 78f 71f
11:12 11 14 mph 1015.2mb 78f 70f
11:06 9 13 mph 1015.2mb 78f 70f
11:00 10 13 mph 1015.1mb 78f 71f
10:54 8 10 mph 1015.1mb 78f 71f
10:48 8 10 mph 1015.1mb 78f 70f
10:42 9 11 mph 1015.1mb 78f 71f
10:36 11 13 mph 1015mb 78f 71f
10:30 10 13 mph 1015.1mb 78f 71f
10:24 9 13 mph 1015.1mb 78f 71f
10:18 10 11 mph 1015mb 78f 71f
10:12 10 13 mph 1015mb 78f 71f
10:06 8 11 mph 1015mb 78f 71f
10:00 9 11 mph 1015mb 78f 72f
9:54 10 11 mph 1014.9mb 78f 72f
9:48 9 11 mph 1014.8mb 78f 72f
9:42 9 10 mph 1014.8mb 78f 73f
9:36 8 9 mph 1014.7mb 78f 73f
9:30 8 10 mph 1014.7mb 78f 73f
9:24 9 11 mph 1014.5mb 78f 73f
9:18 9 13 mph 1014.4mb 79f 74f
9:12 9 11 mph 1014.3mb 79f 74f
9:06 9 11 mph 1014.2mb 79f 74f
9:00 10 11 mph 1014.1mb 79f 75f
8:54 10 11 mph 1014.1mb 79f 75f
8:48 9 11 mph 1014mb 79f 75f
8:42 10 11 mph 1013.8mb 79f 75f
8:36 10 11 mph 1013.8mb 79f 75f
8:30 9 11 mph 1013.7mb 79f 76f
8:24 8 10 mph 1013.7mb 79f 76f
8:18 9 10 mph 1013.6mb 79f 76f
8:12 9 10 mph 1013.6mb 79f 76f
8:06 9 11 mph 1013.5mb 79f 76f
8:00 10 13 mph 1013.4mb 79f 76f
7:54 11 14 mph 1013.4mb 79f 76f
7:48 11 14 mph 1013.3mb 79f 77f
7:42 10 14 mph 1013.3mb 79f 77f
7:36 11 15 mph 1013.2mb 79f 77f
7:30 13 15 mph 1013.1mb 79f 77f
7:24 13 15 mph 1013mb 79f 77f
7:18 14 15 mph 1013mb 79f 77f
7:12 14 17 mph 1012.9mb 79f 77f
7:06 16 18 mph 1012.9mb 79f 78f
7:00 15 18 mph 1012.8mb 79f 78f
6:54 16 20 mph 1012.7mb 79f 78f
6:48 16 17 mph 1012.7mb 79f 78f
6:42 15 20 mph 1012.7mb 79f 78f
6:36 16 20 mph 1012.6mb 79f 78f
6:30 16 18 mph 1012.6mb 79f 78f
6:24 17 21 mph 1012.5mb 79f 79f
6:18 17 18 mph 1012.5mb 78f 79f
6:12 14 17 mph 1012.5mb 78f 79f
6:06 16 20 mph 1012.5mb 78f 79f
6:00 14 17 mph 1012.5mb 78f 79f
5:54 14 17 mph 1012.4mb 78f 79f
5:48 15 17 mph 1012.4mb 78f 79f
5:42 16 20 mph 1012.3mb 78f 79f
5:36 15 20 mph 1012.2mb 78f 79f
5:30 14 18 mph 1012.3mb 78f 79f
5:24 15 18 mph 1012.3mb 78f 79f
5:18 13 20 mph 1012.3mb 78f 79f
5:12 14 17 mph 1012.3mb 78f 79f
5:06 15 17 mph 1012.2mb 78f 79f
5:00 16 18 mph 1012.2mb 78f 79f
4:54 16 18 mph 1012.3mb 78f 79f
4:48 17 20 mph 1012.4mb 78f 79f
4:42 13 17 mph 1012.4mb 78f 80f
4:36 16 17 mph 1012.3mb 78f 80f
4:30 13 16 mph 1012.4mb 78f 80f
4:24 16 18 mph 1012.4mb 78f 80f
4:18 14 17 mph 1012.4mb 78f 80f
4:12 16 18 mph 1012.3mb 78f 80f
4:06 15 17 mph 1012.3mb 78f 80f
4:00 14 17 mph 1012.2mb 78f 80f
3:54 13 15 mph 1012.3mb 78f 80f
3:48 14 17 mph 1012.3mb 78f 80f
3:42 16 22 mph 1012.3mb 78f 80f
3:36 11 15 mph 1012.3mb 78f 80f
3:30 10 16 mph 1012.4mb 78f 80f
3:24 17 21 mph 1012.3mb 78f 80f
3:18 14 17 mph 1012.4mb 78f 80f
3:12 15 17 mph 1012.4mb 78f 80f
3:06 9 16 mph 1012.5mb 78f 80f
3:00 14 16 mph 1012.5mb 78f 80f
2:54 14 17 mph 1012.5mb 78f 80f
2:48 13 18 mph 1012.5mb 78f 80f
2:42 18 22 mph 1012.5mb 78f 80f
2:36 16 20 mph 1012.6mb 78f 80f
2:30 13 17 mph 1012.7mb 78f 80f
2:24 15 18 mph 1012.7mb 78f 80f
2:18 14 16 mph 1012.7mb 78f 80f
2:12 13 17 mph 1012.7mb 78f 80f
2:06 14 16 mph 1012.7mb 78f 80f
2:00 14 18 mph 1012.7mb 78f 80f
1:54 9 20 mph 1012.7mb 78f 80f
1:48 14 17 mph 1012.7mb 78f 79f
1:42 14 16 mph 1012.7mb 78f 80f
1:36 14 17 mph 1012.8mb 78f 79f
1:30 14 18 mph 1012.8mb 78f 79f
1:24 15 17 mph 1012.8mb 78f 79f
1:18 14 17 mph 1012.9mb 78f 79f
1:12 14 15 mph 1012.9mb 78f 80f
1:06 11 18 mph 1012.9mb 78f 79f
1:00 9 15 mph 1013mb 78f 79f
12:54 9 14 mph 1013mb 78f 79f
12:48 14 16 mph 1013mb 78f 79f
12:42 14 17 mph 1013.1mb 78f 79f
12:36 13 16 mph 1013.1mb 78f 79f
12:30 8 11 mph 1013.2mb 78f 79f
12:24 9 14 mph 1013.2mb 78f 79f
12:18 14 17 mph 1013.2mb 78f 79f
12:12 15 17 mph 1013.2mb 78f 79f
12:06 14 18 mph 1013.2mb 78f 79f
12:00 8 11 mph 1013.3mb 78f 78f
11:54 14 17 mph 1013.3mb 78f 78f
11:48 8 11 mph 1013.2mb 78f 78f
11:42 8 10 mph 1013.2mb 78f 78f
11:36 10 14 mph 1013.2mb 78f 78f
11:30 9 15 mph 1013.1mb 78f 78f
11:24 11 13 mph 1013.1mb 78f 78f
11:18 5 7 mph 1013.1mb 77f 77f
11:12 5 7 mph 1013.1mb 77f 78f
11:06  -  5 mph 1013.1mb 77f 78f
11:00 2 5 mph 1013.1mb 77f 78f
10:54  -  2 mph 1013.1mb 77f 78f
10:48 1 2 mph 1013.1mb 77f 77f
10:42  -  1 mph 1013.2mb 77f 78f
10:36  -  2 mph 1013.1mb 77f 78f
10:30 2
mph
1013.2mb 77f 76f
10:24 2 3 mph 1013.2mb 77f 75f
10:18 2 6 mph 1013.1mb 77f 75f
10:12 3 6 mph 1013mb 77f 74f
10:06 5 6 mph 1013mb 77f 74f
10:00 3 6 mph 1013mb 77f 74f
9:54 5 7 mph 1013mb 77f 73f
9:48 6
mph
1013mb 77f 73f
9:42 7 10 mph 1013mb 77f 73f
9:36 8 10 mph 1013mb 77f 73f
9:30 8 9 mph 1013.1mb 77f 73f
9:24 7 9 mph 1013.1mb 77f 73f
9:18 7 10 mph 1013.1mb 77f 73f
9:12 10 11 mph 1013mb 77f 72f
9:06 9 11 mph 1013mb 77f 72f
9:00 7 10 mph 1012.9mb 77f 72f
8:54 9 13 mph 1012.8mb 77f 72f
8:48 10 13 mph 1012.8mb 77f 72f
8:42 10 11 mph 1012.7mb 77f 72f
8:36 10 11 mph 1012.7mb 77f 72f
8:30 10 13 mph 1012.6mb 77f 72f
8:24 13 14 mph 1012.6mb 77f 73f
8:18 13 14 mph 1012.6mb 77f 73f
8:12 9 10 mph 1012.7mb 77f 73f
8:06 8 9 mph 1012.7mb 77f 73f
8:00 7
mph
1012.7mb 77f 73f
7:54 6 7 mph 1012.6mb 77f 73f
7:48 6
mph
1012.6mb 77f 73f
7:42 5 6 mph 1012.5mb 77f 73f
7:36 6 7 mph 1012.6mb 77f 73f
7:30 7 8 mph 1012.5mb 77f 73f
7:24 7 8 mph 1012.5mb 77f 73f
7:18 5 8 mph 1012.5mb 77f 73f
7:12 6 10 mph 1012.5mb 77f 73f
7:06 7 10 mph 1012.5mb 77f 74f
7:00 2 6 mph 1012.4mb 77f 74f
6:54 2 5 mph 1012.3mb 77f 73f
6:48 3 6 mph 1012.3mb 77f 73f
6:42 6 7 mph 1012.2mb 77f 74f
6:36 6 9 mph 1012.2mb 77f 74f
6:30 8 11 mph 1012.1mb 77f 75f
6:24 11 13 mph 1012mb 77f 74f
6:18 9 10 mph 1011.9mb 77f 74f
6:12 8 9 mph 1011.8mb 77f 74f
6:06 7 9 mph 1011.6mb 77f 74f
6:00 7 8 mph 1011.6mb 77f 74f
5:54 8 9 mph 1011.7mb 77f 74f
5:48 9 10 mph 1011.6mb 77f 74f
5:42 8 9 mph 1011.5mb 77f 74f
5:36 9 11 mph 1011.3mb 77f 74f
5:30 9 10 mph 1011.3mb 77f 74f
5:24 10 11 mph 1011.4mb 77f 74f
5:18 10 11 mph 1011.4mb 77f 74f
5:12 9 10 mph 1011.3mb 77f 74f
5:06 9 11 mph 1011.4mb 77f 74f
5:00 10 11 mph 1011.4mb 77f 74f
4:54 9 10 mph 1011.4mb 77f 74f
4:48 10 11 mph 1011.5mb 77f 74f
4:42 10 13 mph 1011.5mb 77f 74f
4:36 11 13 mph 1011.5mb 77f 74f
4:30 11
mph
1011.5mb 77f 74f
4:24 9 10 mph 1011.5mb 77f 74f
4:18 8 9 mph 1011.4mb 77f 74f
4:12 8 10 mph 1011.4mb 77f 74f
4:06 11
mph
1011.4mb 77f 74f
4:00 10 11 mph 1011.5mb 77f 74f
3:54 9 10 mph 1011.5mb 77f 74f
3:48 10 11 mph 1011.4mb 77f 74f
3:42 9 10 mph 1011.5mb 77f 74f
3:36 8 9 mph 1011.5mb 77f 74f
3:30 7 8 mph 1011.5mb 77f 74f
3:24 7 8 mph 1011.5mb 77f 74f
3:18 6 8 mph 1011.5mb 77f 74f
3:12 8 9 mph 1011.7mb 77f 74f
3:06 8
mph
1011.7mb 77f 74f
3:00 8 9 mph 1011.7mb 77f 73f
2:54 7 8 mph 1011.7mb 77f 73f
2:48 3 6 mph - 77f 73f
2:42 6 7 mph - 77f 74f
2:36 5 6 mph - 77f 74f
2:30 6 7 mph 1011.7mb 78f 74f
2:24 5 7 mph 1011.8mb 78f 74f
2:18 7 8 mph 1011.8mb 78f 74f
2:12 8 9 mph 1011.9mb 78f 74f
2:06 9 11 mph 1011.9mb 78f 74f
2:00 9 11 mph 1012mb 78f 74f
1:54 10 11 mph 1012.1mb 78f 73f
1:48 10 13 mph 1012mb 78f 73f
1:42 11 13 mph 1011.9mb 78f 73f
1:36 11 13 mph 1012mb 78f 74f
1:30 14 15 mph 1012mb 78f 74f
1:24 11 14 mph 1012mb 77f 74f
1:18 11 13 mph 1012mb 77f 74f
1:12 13 15 mph 1012mb 77f 73f
1:06 14 16 mph 1012mb 77f 73f
1:00 14 15 mph 1012mb 77f 74f
12:54 14 16 mph 1012mb 77f 73f
12:48 10 22 mph 1011.9mb 77f 74f
12:42 20 26 mph 1011.6mb 77f 71f
12:36 6 11 mph 1012.1mb 77f 72f
12:30 8 13 mph 1012mb 77f 71f
12:24 14 15 mph 1011.9mb 77f 73f
12:18 7 8 mph 1012mb 77f 75f
12:12 5 9 mph 1011.9mb 77f 74f
12:06 10 13 mph 1011.9mb 77f 76f
12:00 11 14 mph 1011.8mb 77f 76f
Ter 08/25 11:54 10 13 mph 1011.7mb 76f 76f
11:48 11 14 mph 1011.6mb 76f 76f
11:42 14 15 mph 1011.6mb 76f 76f
11:36 14
mph
1011.7mb 77f 76f
11:30 11 14 mph 1011.9mb 77f 77f
11:24 11 14 mph 1011.9mb 77f 76f
11:18 11 14 mph 1012mb 77f 76f
11:12 11 14 mph 1012.1mb 77f 76f
11:06 14
mph
1012.3mb 77f 76f
11:00 13 15 mph 1012.2mb 77f 76f
10:54 14 15 mph 1012.2mb 77f 77f
10:48 14 16 mph 1012.3mb 77f 77f
10:42 15 16 mph 1012.3mb 77f 76f
10:36 14 15 mph 1012.3mb 77f 76f
10:30 15 16 mph 1012.3mb 77f 76f
10:24 15
mph
1012.3mb 77f 76f
10:18 13 15 mph 1012.3mb 77f 76f
10:12 11 14 mph 1012.4mb 77f 76f
10:06 11 13 mph 1012.4mb 77f 76f
10:00 11 13 mph 1012.5mb 77f 76f
9:54 11 13 mph 1012.5mb 77f 76f
9:48 10 14 mph 1012.5mb 77f 76f
9:42 14 16 mph 1012.4mb 77f 76f
9:36 14 16 mph 1012.5mb 77f 76f
9:30 15 17 mph 1012.5mb 77f 76f
9:24 14 16 mph 1012.5mb 77f 76f
9:18 15 16 mph 1012.5mb 77f 76f
9:12 15 17 mph 1012.3mb 77f 76f
9:06 16 17 mph 1012.2mb 77f 76f
9:00 15 17 mph 1012.2mb 77f 76f
8:54 15 17 mph 1012.3mb 77f 76f
8:48 16 17 mph 1012.4mb 77f 76f
8:42 15 18 mph 1012.3mb 77f 76f
8:36 16 18 mph 1012.3mb 77f 76f
8:30 17 20 mph 1012.2mb 77f 76f
8:24 17 20 mph 1012.1mb 77f 76f
8:18 17 20 mph 1011.9mb 77f 76f
8:12 17 20 mph 1011.9mb 77f 76f
8:06 17 20 mph 1011.8mb 77f 76f
8:00 18 20 mph 1011.5mb 78f 76f
7:54 17 18 mph 1011.3mb 78f 76f
7:48 17 18 mph 1011.4mb 78f 76f
7:42 17 20 mph 1011.3mb 78f 76f
7:36 18 20 mph 1011.2mb 78f 76f
7:30 17 18 mph 1011.3mb 78f 76f
7:24 17 18 mph 1011.3mb 78f 76f
7:18 16 18 mph 1011.3mb 78f 76f
7:12 17
mph
1011.3mb 78f 76f
7:06 15 18 mph 1011.3mb 78f 77f
7:00 16 18 mph 1011.3mb 78f 77f
6:54 16 17 mph 1011.3mb 78f 77f
6:48 16 17 mph 1011.2mb 78f 77f
6:42 16 18 mph 1011.2mb 78f 77f
6:36 17 18 mph 1011.1mb 78f 77f
6:30 17 18 mph 1011.2mb 78f 78f
6:24 17 18 mph 1011.2mb 78f 78f
6:18 17 18 mph 1011.2mb 78f 78f
6:12 18
mph
1011.3mb 78f 78f
6:06 17 20 mph 1011.3mb 78f 78f
6:00 16 18 mph 1011.3mb 78f 78f
5:54 17 18 mph 1011.3mb 78f 78f
5:48 17 18 mph 1011.3mb 78f 78f
5:42 17 20 mph 1011.3mb 78f 78f
5:36 17 20 mph 1011.4mb 78f 78f
5:30 16 20 mph 1011.3mb 78f 78f
5:24 17 18 mph 1011.3mb 78f 79f
5:18 16 18 mph 1011.3mb 78f 79f
5:12 17 18 mph 1011.3mb 78f 79f
5:06 17 20 mph 1011.2mb 78f 79f
5:00 17 18 mph 1011.2mb 78f 80f
4:54 17 18 mph 1011.1mb 78f 79f
4:48 17 18 mph 1011.1mb 78f 79f
4:42 16 18 mph 1011.1mb 78f 79f
4:36 16 18 mph 1011.1mb 78f 79f
4:30 16 17 mph 1011.1mb 78f 79f
4:24 17 18 mph 1011.2mb 78f 79f